Air Resources Laboratory banner image
Air Resources Laboratory web site National Oceanic and Atmospheric Administration (NOAA)

il roundup


Office: LOT

ASUS43 KLOT 180603
RWRIL

ILLINOIS REGIONAL WEATHER ROUNDUP
NATIONAL WEATHER SERVICE CHICAGO/ROMEOVILLE IL
100 AM CDT WED JUL 18 2018

NOTE: "FAIR" INDICATES FEW OR NO CLOUDS BELOW 12,000 FEET WITH NO
SIGNIFICANT WEATHER AND/OR OBSTRUCTIONS TO VISIBILITY.

* THESE STATIONS ARE NOT UNDER NWS QUALITY CONTROL. THEY ALSO MAY NOT
  REPORT WEATHER SUCH AS PRECIPITATION OR FOG.

ILZ001-002-007-009-015-016-024-180700-
NORTHWEST ILLINOIS

CITY           SKY/WX    TMP DP  RH WIND       PRES   REMARKS
MOLINE         FAIR      69  64  84 SE3       30.09R
6HR MIN TEMP:  69; 6HR MAX TEMP:  86;

STERLING*      FAIR      61  60  97 E3        30.12R
SAVANNA*       FAIR      64  57  77 E6        30.11R
$$

ILZ003-004-008-010-011-017-018-180700-
NORTH CENTRAL ILLINOIS

CITY           SKY/WX    TMP DP  RH WIND       PRES   REMARKS
ROCKFORD       FAIR      63  58  83 CALM      30.13R
6HR MIN TEMP:  62; 6HR MAX TEMP:  79;

FREEPORT*      FAIR      62  59  92 SE8       30.14R
ROCHELLE*      FAIR      61  60  96 SE5       30.12S
DE KALB*       FAIR      62  60  93 E5        30.13S
PERU*          FAIR      67  61  79 E6        30.12S
$$

ILZ005-006-012>014-019>023-180700-
NORTHEAST ILLINOIS

CITY           SKY/WX    TMP DP  RH WIND       PRES   REMARKS
CHICAGO-OHARE  FAIR      68  57  68 NE8       30.11S
6HR MIN TEMP:  68; 6HR MAX TEMP:  75;

CHICAGO-MIDWAY FAIR      69  57  65 NE7       30.11S
6HR MIN TEMP:  69; 6HR MAX TEMP:  76;

AURORA         FAIR      61  59  93 CALM      30.12S
6HR MIN TEMP:  61; 6HR MAX TEMP:  80;

LANSING*       FAIR      67  58  74 NE5       30.12R
JOLIET*        FAIR      64  61  92 CALM      30.12S
WAUKEGAN       FAIR      59  58  96 CALM      30.11F
6HR MIN TEMP:  59; 6HR MAX TEMP:  70;

DUPAGE AIRPORT FAIR      62  59  90 N3        30.11S
6HR MIN TEMP:  61; 6HR MAX TEMP:  76;

KANKAKEE*      FAIR      62  57  83 CALM      30.13R
WHEELING       FAIR      65  61  87 CALM      30.13S
6HR MIN TEMP:  64; 6HR MAX TEMP:  74;

MORRIS*        FAIR      61  60  95 CALM      30.11S
NORTHERLY ISL    N/A     68  55  63 N10         N/A
$$

LMZ740>746-180700-
SOUTHERN LAKE MICHIGAN

STATION/POSITION SKY/WX   TEMP    WIND        PRES    VSBY  WAVE
                          AIR SEA DIR/SP/G                  HT/PER
                          (F)     (DEG/KT/KT) (MB)    (MI)  (FT/S)
SOUTHERN BUOY              70 72   40/ 14/ 16 1019.3R         4/ 5
WILMETTE HARBOR            70 72   40/ 10/ 14   N/A           4/ 5
HARRISON CRIB              71      40/ 16/ 17   N/A
NORTHERLY ISL              69      20/  8/ 12   N/A
CALUMET HARBOR             70     360/  8/ 11 1019.2
BURNS HARBOR               71      30/ 16/ 19 1019.6S
MICHIGAN CITY              69      20/ 17/ 18   N/A
MICHIGAN CITY 6N           71 73   50/ 14/ 19   N/A           6/ 6
ST. JOSEPH                 65 65   60/ 10/ 12 1019.4R         4/ 6
$$

ILZ025>027-034>036-040-047-049-050-058-095>099-180700-
WEST-CENTRAL ILLINOIS

CITY           SKY/WX    TMP DP  RH WIND       PRES   REMARKS
QUINCY         CLEAR     71  63  75 E3        30.08R
GALESBURG*     FAIR      71  64  79 E5        30.10S
MACOMB*        CLEAR     64  63  94 E3        30.10S
JACKSONVILLE*  CLEAR     67  66  95 CALM      30.07F
PITTSFIELD*    PTCLDY    68  67  96 CALM      30.09S
$$

ILZ028>032-037-038-041>044-048-051>054-059>061-180700-
CENTRAL ILLINOIS

CITY           SKY/WX    TMP DP  RH WIND       PRES   REMARKS
PONTIAC        RAIN      61  61  99 E3        30.13S VSB 1/2
DECATUR        FAIR      66  65  96 NE7       30.09R
PEORIA         FAIR      70  60  70 E9        30.10R
6HR MIN TEMP:  70; 6HR MAX TEMP:  84;

LACON*         FAIR      65  58  78 E7        30.10R
LINCOLN*       FAIR      68  65  90 CALM      30.10R
SPRINGFIELD    FAIR      68  67  96 CALM      30.08S
6HR MIN TEMP:  68; 6HR MAX TEMP:  84;

TAYLORVILLE    FAIR      67  67 100 CALM      30.08S
6HR MIN TEMP:  66; 6HR MAX TEMP:  79;

$$

ILZ033-039-045-046-055>057-062-063-180700-
EAST-CENTRAL ILLINOIS

CITY           SKY/WX    TMP DP  RH WIND       PRES   REMARKS
CHAMPAIGN      FAIR      66  61  84 NE9       30.10S
DANVILLE*      FAIR      60  57  89 NE6       30.08S
RANTOUL*       FAIR      67  59  76 NE6       30.11S
MATTOON        FAIR      68  65  90 NE5       30.08R
PARIS*         FAIR      66  59  77 NE6       30.10S
$$

ILZ079-100>102-180700-
SOUTHWEST ILLINOIS

CITY           SKY/WX    TMP DP  RH WIND       PRES   REMARKS
ALTON          CLEAR     68  68 100 CALM      30.06F
BELLEVILLE     PTCLDY    72  68  86 NE5       30.04S
CAHOKIA*       MOCLDY    70  67  90 NE3       30.05S
SPARTA*        PTCLDY    73  70  91 CALM      30.06S
$$

ILZ064>066-069>071-074>076-080>082-084>086-088>090-092>094-180700-
SOUTH-CENTRAL ILLINOIS

CITY           SKY/WX    TMP DP  RH WIND       PRES   REMARKS
CARBONDALE     NOT AVBL
CAIRO*         FAIR      76  71  84 N6        30.02S
EFFINGHAM*     FAIR      67  66  97 NW3       30.08S
MARION         FAIR      72  72  98 N3        30.04F
MT. VERNON     FAIR      68  66  93 CALM      30.05F
CENTRALIA*     PTCLDY    69  69 100 CALM      30.05S
SALEM*         FAIR      74  65  75 NE3       30.06S
METROPOLIS*    FAIR      75  70  86 CALM      30.04S
$$

ILZ067-068-072-073-078-083-087-091-180700-
SOUTHEAST ILLINOIS

CITY           SKY/WX    TMP DP  RH WIND       PRES   REMARKS
LAWRENCEVILLE  FAIR      71  64  78 CALM      30.05S
FLORA*         FAIR      71  67  85 N5        30.06S
FAIRFIELD*     FAIR      70  67  89 CALM      30.04S
HARRISBURG*    FAIR      71  69  93 N5        30.04S
ROBINSON*      FAIR      69  67  92 NE5       30.07S
$$

ABBREVIATIONS USED IN REMARKS
   TC - TEMPERATURE IN CELSIUS
  WCI - WIND CHILL INDEX
   HX - HEAT INDEX
  VSB - VISIBILITY
$$



ASUS43 KLOT 180608
RWRIL

ILLINOIS REGIONAL WEATHER ROUNDUP
NATIONAL WEATHER SERVICE CHICAGO/ROMEOVILLE IL
100 AM CDT WED JUL 18 2018

NOTE: "FAIR" INDICATES FEW OR NO CLOUDS BELOW 12,000 FEET WITH NO
SIGNIFICANT WEATHER AND/OR OBSTRUCTIONS TO VISIBILITY.

* THESE STATIONS ARE NOT UNDER NWS QUALITY CONTROL. THEY ALSO MAY NOT
  REPORT WEATHER SUCH AS PRECIPITATION OR FOG.

ILZ001-002-007-009-015-016-024-180700-
NORTHWEST ILLINOIS

CITY           SKY/WX    TMP DP  RH WIND       PRES   REMARKS
MOLINE         FAIR      69  64  84 SE3       30.09R
6HR MIN TEMP:  69; 6HR MAX TEMP:  86;

STERLING*      FAIR      61  60  97 E3        30.12R
SAVANNA*       FAIR      64  57  77 E6        30.11R
$$

ILZ003-004-008-010-011-017-018-180700-
NORTH CENTRAL ILLINOIS

CITY           SKY/WX    TMP DP  RH WIND       PRES   REMARKS
ROCKFORD       FAIR      63  58  83 CALM      30.13R
6HR MIN TEMP:  62; 6HR MAX TEMP:  79;

FREEPORT*      FAIR      62  59  92 SE8       30.14R
ROCHELLE*      FAIR      61  60  96 SE5       30.12S
DE KALB*       FAIR      62  60  93 E5        30.13S
PERU*          FAIR      67  61  79 E6        30.12S
$$

ILZ005-006-012>014-019>023-180700-
NORTHEAST ILLINOIS

CITY           SKY/WX    TMP DP  RH WIND       PRES   REMARKS
CHICAGO-OHARE  FAIR      68  57  68 NE8       30.11S
6HR MIN TEMP:  68; 6HR MAX TEMP:  75;

CHICAGO-MIDWAY FAIR      69  57  65 NE7       30.11S
6HR MIN TEMP:  69; 6HR MAX TEMP:  76;

AURORA         FAIR      61  59  93 CALM      30.12S
6HR MIN TEMP:  61; 6HR MAX TEMP:  80;

LANSING*       FAIR      67  58  74 NE5       30.12R
JOLIET*        FAIR      64  61  92 CALM      30.12S
WAUKEGAN       FAIR      59  58  96 CALM      30.11F
6HR MIN TEMP:  59; 6HR MAX TEMP:  70;

DUPAGE AIRPORT FAIR      62  59  90 N3        30.11S
6HR MIN TEMP:  61; 6HR MAX TEMP:  76;

KANKAKEE*      FAIR      62  57  83 CALM      30.13R
WHEELING       FAIR      65  61  87 CALM      30.13S
6HR MIN TEMP:  64; 6HR MAX TEMP:  74;

MORRIS*        FAIR      61  60  95 CALM      30.11S
ROMEOVILLE*    FAIR      64  59  85 E3        30.12S
NORTHERLY ISL    N/A     68  55  63 N10         N/A
$$

LMZ740>746-180700-
SOUTHERN LAKE MICHIGAN

STATION/POSITION SKY/WX   TEMP    WIND        PRES    VSBY  WAVE
                          AIR SEA DIR/SP/G                  HT/PER
                          (F)     (DEG/KT/KT) (MB)    (MI)  (FT/S)
SOUTHERN BUOY              70 72   40/ 14/ 16 1019.3R         4/ 5
WILMETTE HARBOR            70 72   40/ 10/ 14   N/A           4/ 5
HARRISON CRIB              71      40/ 16/ 17   N/A
NORTHERLY ISL              69      20/  8/ 12   N/A
CALUMET HARBOR                    360/  8/ 13 1019.1S
BURNS HARBOR               71      30/ 16/ 19 1019.6S
MICHIGAN CITY              69      20/ 17/ 18   N/A
MICHIGAN CITY 6N           70 73   60/ 12/ 16   N/A           6/ 6
ST. JOSEPH                 65 65   60/  8/ 12 1019.4          4/ 6
$$

ILZ025>027-034>036-040-047-049-050-058-095>099-180700-
WEST-CENTRAL ILLINOIS

CITY           SKY/WX    TMP DP  RH WIND       PRES   REMARKS
QUINCY         CLEAR     71  63  75 E3        30.08R
GALESBURG*     FAIR      71  64  79 E5        30.10S
MACOMB*        CLEAR     64  63  94 E3        30.10S
JACKSONVILLE*  CLEAR     67  66  95 CALM      30.07F
PITTSFIELD*    PTCLDY    68  67  96 CALM      30.09S
$$

ILZ028>032-037-038-041>044-048-051>054-059>061-180700-
CENTRAL ILLINOIS

CITY           SKY/WX    TMP DP  RH WIND       PRES   REMARKS
PONTIAC        RAIN      61  61  99 E3        30.13S VSB 1/2
DECATUR        FAIR      66  65  96 NE7       30.09R
PEORIA         FAIR      70  60  70 E9        30.10R
6HR MIN TEMP:  70; 6HR MAX TEMP:  84;

LACON*         FAIR      65  58  78 E7        30.10R
LINCOLN*       FAIR      68  65  90 CALM      30.10R
SPRINGFIELD    FAIR      68  67  96 CALM      30.08S
6HR MIN TEMP:  68; 6HR MAX TEMP:  84;

TAYLORVILLE    FAIR      67  67 100 CALM      30.08S
6HR MIN TEMP:  66; 6HR MAX TEMP:  79;

$$

ILZ033-039-045-046-055>057-062-063-180700-
EAST-CENTRAL ILLINOIS

CITY           SKY/WX    TMP DP  RH WIND       PRES   REMARKS
CHAMPAIGN      FAIR      66  61  84 NE9       30.10S
DANVILLE*      FAIR      60  57  89 NE6       30.08S
RANTOUL*       FAIR      67  59  76 NE6       30.11S
MATTOON        FAIR      68  65  90 NE5       30.08R
PARIS*         FAIR      66  59  77 NE6       30.10S
$$

ILZ079-100>102-180700-
SOUTHWEST ILLINOIS

CITY           SKY/WX    TMP DP  RH WIND       PRES   REMARKS
ALTON          CLEAR     68  68 100 CALM      30.06F
BELLEVILLE     PTCLDY    72  68  86 NE5       30.04S
CAHOKIA*       MOCLDY    70  67  90 NE3       30.05S
SPARTA*        PTCLDY    73  70  91 CALM      30.06S
$$

ILZ064>066-069>071-074>076-080>082-084>086-088>090-092>094-180700-
SOUTH-CENTRAL ILLINOIS

CITY           SKY/WX    TMP DP  RH WIND       PRES   REMARKS
CARBONDALE     NOT AVBL
CAIRO*         FAIR      76  71  84 N6        30.02S
EFFINGHAM*     FAIR      67  66  97 NW3       30.08S
MARION         FAIR      72  72  98 N3        30.04F
MT. VERNON     FAIR      68  66  93 CALM      30.05F
CENTRALIA*     PTCLDY    69  69 100 CALM      30.05S
SALEM*         FAIR      74  65  75 NE3       30.06S
METROPOLIS*    FAIR      75  70  86 CALM      30.04S
$$

ILZ067-068-072-073-078-083-087-091-180700-
SOUTHEAST ILLINOIS

CITY           SKY/WX    TMP DP  RH WIND       PRES   REMARKS
LAWRENCEVILLE  FAIR      71  64  78 CALM      30.05S
FLORA*         FAIR      71  67  85 N5        30.06S
FAIRFIELD*     FAIR      70  67  89 CALM      30.04S
HARRISBURG*    FAIR      71  69  93 N5        30.04S
ROBINSON*      FAIR      69  67  92 NE5       30.07S
CARMI*         FAIR      68  66  94 N3        30.03S
$$

ABBREVIATIONS USED IN REMARKS
   TC - TEMPERATURE IN CELSIUS
  WCI - WIND CHILL INDEX
   HX - HEAT INDEX
  VSB - VISIBILITY
$$